Home > Weather > Lexington-Fayette > Past weeks

Flag for U.S.A. Weather for the Past 2 Weeks in Lexington-Fayette, Kentucky, U.S.A.

Now
17 °F

Clear.


Feels Like: 8 °F
Forecast: 15 / 31 °F
Wind: 7 mph from East

Location: Blue Grass Airport

Current Time: Feb 14, 2016 at 3:50:01 AM

Latest Report: Feb 14, 2016 at 2:54 AM


Visibility: 10 mi

Pressure: 30.47 "Hg

Humidity: 54%

Dew point: 3 °F

Location of Lexington-FayetteLocation

Historic Weather in Lexington-Fayette — Graph

°F

Lexington-Fayette Temperature Yesterday

Maximum temperature yesterday: 24 °F (at 3:54 PM)
Minimum temperature yesterday: 14 °F (at 6:54 AM)
Average temperature yesterday: 18 °F

High & Low Weather Summary for the Past Weeks

 TemperatureHumidityPressure
High70 °F (Feb 2, 2:54 PM)96% (Feb 8, 7:54 AM)30.58 "Hg (Feb 8, 7:54 AM)
Low14 °F (Feb 10, 9:01 AM)28% (Feb 7, 2:54 PM)29.62 "Hg (Feb 3, 1:59 AM)
Average36 °F65%30.07 "Hg
* Reported Jan 30 2:54 AM — Feb 14 2:54 AM, Lexington-Fayette, Weather by CustomWeather, © 2016

Note: Actual official high and low records may vary slightly from our data, if they occured in-between our weather recording intervals... More about our weather records

Advertising

Lexington-Fayette Weather History for the Previous 24 Hours

 ConditionsComfort  
Time TempWeatherWind HumidityBarometerVisibility
2:54 AM
Sun, Feb 14
17 °FClear.7 mph54%30.47 "Hg10 mi
1:54 AM17 °FClear.8 mph54%30.47 "Hg10 mi
12:54 AM17 °FClear.8 mph54%30.48 "Hg10 mi
11:54 PM
Sat, Feb 13
16 °FClear.10 mph56%30.49 "Hg10 mi
10:54 PM15 °FClear.7 mph56%30.51 "Hg10 mi
9:54 PM15 °FClear.8 mph58%30.53 "Hg10 mi
8:54 PM15 °FClear.6 mph56%30.52 "Hg10 mi
7:54 PM18 °FClear.No wind49%30.54 "Hg10 mi
6:54 PM18 °FClear.6 mph47%30.54 "Hg10 mi
5:54 PM20 °FSunny.8 mph41%30.53 "Hg10 mi
4:54 PM23 °FSunny.8 mph36%30.52 "Hg10 mi
3:54 PM24 °FSunny.7 mph38%30.51 "Hg10 mi
2:54 PM23 °FSunny.12 mph42%30.52 "Hg10 mi
1:54 PM22 °FPassing clouds.13 mph44%30.53 "Hg10 mi
12:54 PM21 °FScattered clouds.8 mph45%30.55 "Hg10 mi
11:54 AM20 °FScattered clouds.9 mph50%30.57 "Hg10 mi
10:54 AM17 °FOvercast.8 mph56%30.58 "Hg10 mi
9:54 AM14 °FPassing clouds.12 mph61%30.56 "Hg10 mi
8:54 AM15 °FPassing clouds.12 mph61%30.54 "Hg10 mi
8:00 AM14 °FLight snow. Mostly cloudy.12 mph73%30.48 "Hg3 mi
6:54 AM14 °FPartly cloudy.7 mph67%30.49 "Hg10 mi
5:54 AM15 °FPartly cloudy.9 mph64%30.46 "Hg10 mi
4:54 AM17 °FPassing clouds.13 mph59%30.43 "Hg10 mi
3:54 AM17 °FPassing clouds.12 mph59%30.40 "Hg10 mi
Weather by CustomWeather, © 2016

See weather overviewHow to use our weather pages